Date String (YYYY-MM-DD hh:mm:ss) UTC,Instrument flags,Ambient pressure (hPa),Sample flow (lpm),Bypass flow (lpm),Sample temperature (°C),Ambient temperature (°C),ASC tube jacket temperature (°C),LED temperature (°C),Box temperature (°C),Sample RH (%),Span deviation,Mass concentration (μg/m³),Mass concentration (μg/m³),Mass concentration (μg/m³)
DateTimeUTC,F1_M11,P_M11,Q1_M11,Q2_M11,T1_M11,T2_M11,T3_M11,T4_M11,T5_M11,U1_M11,ZSPAN_M11,X0_M11,X2_M11,X1_M11
2022-04-29 01:00:00,,0815.3,5.01,0.00,29.4,28.5,00.0,38.2,31.3,09.4,0002.1,0027.28,0009.21,0005.77
2022-04-29 01:01:00,,0815.3,5.00,0.00,29.4,28.6,00.0,38.2,31.3,09.4,0001.8,0027.73,0009.29,0005.76
2022-04-29 01:02:00,,0815.3,4.99,0.00,29.4,28.6,00.0,38.2,31.3,09.4,0002.1,0028.99,0009.43,0005.76
2022-04-29 01:03:00,,0815.3,5.01,0.00,29.4,27.7,00.0,38.2,31.1,09.3,0002.0,0028.78,0009.39,0005.75
2022-04-29 01:04:00,,0815.3,4.99,0.00,29.3,25.9,00.0,38.2,30.7,09.5,0002.3,0028.70,0009.43,0005.74
2022-04-29 01:05:00,,0815.3,5.00,0.00,29.2,25.9,00.0,38.2,30.7,09.6,0002.1,0029.80,0009.53,0005.73
2022-04-29 01:06:00,,0815.3,5.01,0.00,29.2,26.3,00.0,38.2,30.7,09.6,0001.6,0030.03,0009.53,0005.73
2022-04-29 01:07:00,,0815.3,4.99,0.00,29.2,26.7,00.0,38.1,30.8,09.5,0001.7,0030.23,0009.60,0005.72
2022-04-29 01:08:00,,0815.3,4.98,0.00,29.2,27.1,00.0,38.1,30.9,09.5,0001.7,0031.50,0009.76,0005.74
2022-04-29 01:09:00,,0815.3,5.01,0.00,29.2,27.4,00.0,38.1,31.0,09.5,0001.8,0032.47,0009.80,0005.73
2022-04-29 01:10:00,,0815.4,5.00,0.00,29.2,27.6,00.0,38.1,31.1,09.5,0001.5,0033.62,0009.88,0005.75
2022-04-29 01:11:00,,0815.4,5.00,0.00,29.2,27.9,00.0,38.1,31.1,09.6,0001.3,0034.91,0009.92,0005.74
2022-04-29 01:12:00,,0815.3,5.00,0.00,29.3,28.0,00.0,38.2,31.1,09.5,0001.0,0034.97,0009.96,0005.73
2022-04-29 01:13:00,,0815.4,5.00,0.00,29.3,28.2,00.0,38.2,31.2,09.5,0001.1,0034.47,0009.86,0005.74
2022-04-29 01:14:00,,0815.4,5.01,0.00,29.3,28.3,00.0,38.2,31.2,09.4,0001.5,0034.12,0009.97,0005.77
2022-04-29 01:15:00,,0815.4,5.00,0.00,29.3,28.3,00.0,38.2,31.2,09.4,0001.0,0035.97,0009.99,0005.77
2022-04-29 01:16:00,,0815.4,5.01,0.00,29.4,28.4,00.0,38.2,31.2,09.3,0001.0,0035.23,0009.92,0005.76
2022-04-29 01:17:00,,0815.3,5.01,0.00,29.4,28.4,00.0,38.2,31.3,09.3,0000.7,0035.43,0009.93,0005.74
2022-04-29 01:18:00,,0815.4,4.99,0.00,29.4,28.5,00.0,38.2,31.3,09.3,0000.3,0036.31,0009.90,0005.75
2022-04-29 01:19:00,,0815.4,5.02,0.00,29.4,28.5,00.0,38.3,31.3,09.3,0000.5,0035.54,0009.79,0005.75
2022-04-29 01:20:00,,0815.4,4.99,0.00,29.4,27.8,00.0,38.3,31.1,09.2,0000.7,0034.06,0009.68,0005.75
2022-04-29 01:21:00,,0815.3,5.00,0.00,29.3,25.3,00.0,38.2,30.5,09.3,0000.9,0033.80,0009.58,0005.75
2022-04-29 01:22:00,,0815.4,5.00,0.00,29.1,24.6,00.0,38.2,30.3,09.4,0002.0,0031.44,0009.50,0005.77
2022-04-29 01:23:00,,0815.4,5.01,0.00,29.0,25.0,00.0,38.1,30.4,09.4,0003.1,0030.79,0009.50,0005.77
2022-04-29 01:24:00,,0815.9,5.00,0.00,29.0,25.6,00.0,38.1,30.5,09.5,0002.9,0030.08,0009.49,0005.76
2022-04-29 01:25:00,,0815.9,5.00,0.00,29.0,26.1,00.0,38.1,30.6,09.5,0002.7,0030.24,0009.52,0005.73
2022-04-29 01:26:00,,0815.8,4.99,0.00,29.0,26.5,00.0,38.0,30.7,09.5,0003.1,0028.36,0009.47,0005.70
2022-04-29 01:27:00,,0816.0,5.00,0.00,29.0,26.9,00.0,38.0,30.7,09.5,0003.2,0028.41,0009.51,0005.72
2022-04-29 01:28:00,,0816.0,5.01,0.00,29.0,27.2,00.0,38.0,30.8,09.5,0003.4,0027.61,0009.51,0005.72
2022-04-29 01:29:00,,0816.0,4.98,0.00,29.0,27.4,00.0,38.0,30.8,09.5,0004.4,0027.39,0009.46,0005.72
2022-04-29 01:30:00,,0816.1,5.02,0.00,29.0,27.6,00.0,38.0,30.8,09.5,0004.1,0027.75,0009.44,0005.72
2022-04-29 01:31:00,,0816.1,4.99,0.00,29.0,27.7,00.0,38.0,30.9,09.5,0003.8,0027.83,0009.49,0005.74
2022-04-29 01:32:00,,0816.1,5.01,0.00,29.0,27.8,00.0,38.0,30.9,10.0,0003.8,0026.81,0009.53,0005.76
2022-04-29 01:33:00,,0815.8,4.99,0.00,29.0,27.9,00.0,38.0,30.9,10.3,0004.0,0026.67,0009.67,0005.77
2022-04-29 01:34:00,,0815.6,5.00,0.00,29.1,28.0,00.0,38.0,30.9,10.4,0004.1,0027.34,0009.69,0005.78
2022-04-29 01:35:00,,0815.6,5.00,0.00,29.1,28.1,00.0,38.0,30.9,10.2,0005.1,0027.75,0009.68,0005.80
2022-04-29 01:36:00,,0815.8,4.99,0.00,29.1,28.1,00.0,38.0,30.9,10.2,0005.3,0028.39,0009.68,0005.82
2022-04-29 01:37:00,,0816.1,5.02,0.00,29.1,28.2,00.0,38.0,31.0,10.3,0005.1,0028.60,0009.71,0005.84
2022-04-29 01:38:00,,0815.9,5.00,0.00,29.1,28.3,00.0,38.0,31.0,10.0,0004.1,0027.57,0009.64,0005.82
2022-04-29 01:39:00,,0815.4,5.00,0.00,29.1,28.3,00.0,38.0,31.0,09.9,0004.9,0026.91,0009.52,0005.81
2022-04-29 01:40:00,,0815.5,5.02,0.00,29.2,28.4,00.0,38.1,31.0,09.9,0004.4,0026.19,0009.53,0005.78
2022-04-29 01:41:00,,0815.5,4.98,0.00,29.2,28.4,00.0,38.1,31.0,10.1,0003.9,0025.62,0009.53,0005.75
2022-04-29 01:42:00,,0815.4,5.01,0.00,29.2,28.4,00.0,38.1,31.1,10.5,0003.8,0025.85,0009.57,0005.76
2022-04-29 01:43:00,,0815.4,5.02,0.00,29.2,28.5,00.0,38.1,31.1,10.5,0003.8,0026.35,0009.64,0005.75
2022-04-29 01:44:00,,0815.3,4.99,0.00,29.2,28.5,00.0,38.1,31.1,10.4,0003.6,0027.38,0009.49,0005.72
2022-04-29 01:45:00,,0815.4,4.99,0.00,29.3,27.8,00.0,38.1,30.9,10.4,0003.7,0026.43,0009.34,0005.71
2022-04-29 01:46:00,,0815.3,5.02,0.00,29.1,25.8,00.0,38.1,30.5,10.5,0003.6,0025.64,0009.31,0005.70
2022-04-29 01:47:00,,0815.3,5.00,0.00,29.1,25.7,00.0,38.1,30.5,10.5,0003.3,0025.73,0009.29,0005.70
2022-04-29 01:48:00,,0815.3,5.00,0.00,29.0,26.1,00.0,38.0,30.5,10.2,0003.5,0026.17,0009.22,0005.70
2022-04-29 01:49:00,,0815.3,5.01,0.00,29.0,26.5,00.0,38.0,30.6,10.1,0003.7,0026.00,0009.15,0005.69
2022-04-29 01:50:00,,0815.3,4.98,0.00,29.0,26.8,00.0,38.0,30.7,10.1,0003.4,0026.61,0009.17,0005.68
2022-04-29 01:51:00,,0815.3,5.01,0.00,29.0,27.1,00.0,38.0,30.7,10.1,0002.9,0027.02,0009.12,0005.68
2022-04-29 01:52:00,,0815.3,4.99,0.00,29.0,27.4,00.0,38.0,30.8,10.3,0003.1,0027.85,0009.04,0005.68
2022-04-29 01:53:00,,0815.3,5.02,0.00,29.0,27.6,00.0,38.0,30.8,10.4,0003.6,0029.30,0008.90,0005.64
2022-04-29 01:54:00,,0815.3,4.98,0.00,29.0,27.8,00.0,38.0,30.8,10.4,0003.3,0029.16,0008.83,0005.62
2022-04-29 01:55:00,,0815.3,5.00,0.00,29.0,27.9,00.0,38.0,30.8,10.4,0002.6,0027.83,0008.78,0005.61
2022-04-29 01:56:00,,0815.3,5.01,0.00,29.0,28.0,00.0,38.0,30.9,10.4,0002.7,0026.90,0008.80,0005.60
2022-04-29 01:57:00,,0815.3,4.99,0.00,29.1,28.1,00.0,38.0,30.9,10.4,0002.6,0027.00,0008.82,0005.59
2022-04-29 01:58:00,,0815.3,5.01,0.00,29.1,28.2,00.0,38.0,30.9,10.4,0002.1,0026.75,0008.74,0005.56
2022-04-29 01:59:00,,0815.3,5.00,0.00,29.1,28.2,00.0,38.0,31.0,10.4,0001.9,0025.32,0008.72,0005.55
